Snowfall_Accumulation
0.1 0.0 0.0 0.0 0.0 0.0 0.9 0.0 0.4 0.0 0.0 0.0 0.0 0.0 0.0 0.0 0.0 0.0 0.0 0.0 0.0 0.0 0.0 0.0 0.0 0.0 0.0 0.0 0.0 0.0 0.0 0.0 0.0 0.0 0.0 0.0 0.0 0.0 0.0 0.0 0.0 0.0 0.0 0.0
0.1 0.0 0.0 0.0 0.0 0.0 0.0 0.0 0.0 0.0 0.0 0.0 0.0 0.0 0.0 0.0 0.0 0.0 0.0 0.0 0.0 0.0 0.0 0.0 0.0 0.0 0.0 0.0 0.0 0.0 0.0 0.0 0.0 0.0 0.0 0.0 0.0 0.0 0.0 0.0 0.0 0.0 0.0 0.0
0.2 0.0 0.0 1.5 0.0 0.0 0.0 0.0 0.0 0.1 0.0 0.0 0.0 0.0 0.0 0.0 0.0 0.0 0.0 0.0 0.0 0.0 0.0 0.0 0.0 0.0 0.0 0.0 0.0 0.0 0.0 0.0 0.0 0.0 0.0 0.0 0.0 0.0 0.0 0.0 0.0 0.0 0.0 0.0
1.8 0.1 10.1 0.1 0.0 0.0 0.0 0.0 0.0 0.0 0.0 0.0 0.0 0.0 0.0 0.0 0.0 0.0 0.0 0.0 0.0 0.0 0.0 0.0 0.0 0.0 0.0 0.0 0.0 0.0 0.0 0.0 0.0 0.0 0.0 0.0 0.0 0.0 0.0 0.0 0.0 0.0 0.0 0.0
6.3 0.5 0.0 0.0 0.0 0.0 0.0 0.0 0.0 0.0 0.0 0.0 0.0 0.0 0.0 0.0 0.0 0.0 0.0 0.0 0.0 0.0 0.0 0.0 0.0 0.0 0.0 0.0 0.0 0.0 0.0 0.0 0.0 0.0 0.0 0.0 0.0 0.0 0.0 0.0 0.0 0.0 0.0 0.0
0.9 0.7 2.3 0.0 0.0 0.0 0.0 0.0 0.0 0.0 0.0 0.0 0.0 0.0 0.0 0.0 0.0 0.0 0.0 0.0 0.0 0.0 0.0 0.0 0.0 0.0 0.0 0.0 0.0 0.0 0.0 0.0 0.0 0.0 0.0 0.0 0.0 0.0 0.0 0.0 0.0 0.0 0.0 0.0
1.2 0.8 0.1 0.0 0.0 0.0 0.3 0.1 0.0 0.0 0.0 0.0 0.0 0.0 0.0 0.0 0.0 0.0 0.0 0.0 0.0 0.0 0.0 0.0 0.0 0.0 0.0 0.0 0.0 0.0 0.0 0.0 0.0 0.0 0.0 0.0 0.0 0.0 0.0 0.0 0.0 0.0 0.0 0.0
1.9 4.1 6.1 0.0 0.0 0.0 0.0 0.0 0.0 0.0 0.0 0.0 0.0 0.0 0.0 0.0 0.0 0.0 0.0 0.0 0.0 0.0 0.0 0.0 0.0 0.0 0.0 0.0 0.0 0.0 0.0 0.0 0.0 0.0 0.0 0.0 0.0 0.0 0.0 0.0 0.0 0.0 0.0 0.0
0.2 0.4 0.0 0.0 0.0 0.0 0.0 0.0 0.0 0.0 0.0 0.0 0.0 0.0 0.0 0.0 0.0 0.0 0.0 0.0 0.0 0.0 0.0 0.0 0.0 0.0 0.0 0.0 0.0 0.0 0.0 0.0 0.0 0.0 0.0 0.0 0.0 0.0 0.0 0.0 0.0 0.0 0.1 0.1
0.0 0.0 0.0 0.0 0.0 0.0 0.0 0.0 0.0 0.0 0.0 0.0 0.0 0.0 0.0 0.0 0.0 0.0 0.0 0.0 0.0 0.0 0.0 0.0 0.0 0.0 0.0 0.0 0.0 0.0 0.0 0.0 0.0 0.0 0.0 0.0 0.0 0.0 0.0 0.0 0.2 0.2 0.3 0.5
0.0 0.0 0.0 0.0 0.0 0.0 0.0 0.0 0.0 0.0 0.0 0.0 0.0 0.0 0.0 0.0 0.0 0.0 0.0 0.0 0.0 0.0 0.0 0.0 0.0 0.0 0.0 0.0 0.0 0.0 0.0 0.0 0.0 0.0 0.0 0.0 0.0 0.0 0.0 0.0 0.2 0.4 0.4 1.0
0.0 0.0 0.0 0.0 0.0 0.0 0.0 0.0 0.0 0.0 0.0 0.0 0.0 0.0 0.0 0.0 0.0 0.0 0.0 0.0 0.0 0.0 0.0 0.0 0.0 0.0 0.0 0.0 0.0 0.0 0.0 0.0 0.0 0.0 0.0 0.0 0.0 0.1 nan nan nan nan nan 0.6
0.0 0.0 0.0 0.0 0.0 0.0 0.0 0.0 0.0 0.0 0.0 0.0 0.0 0.0 0.0 0.0 0.0 nan 0.0 0.0 0.0 0.0 0.0 0.0 0.0 0.0 0.0 0.0 0.0 0.0 0.0 0.0 0.0 0.0 0.0 0.0 0.0 0.2 0.4 0.3 nan nan nan nan
0.0 0.0 0.0 0.0 0.0 0.0 0.0 0.0 0.0 0.0 0.0 0.0 0.0 0.0 0.0 0.0 0.0 0.0 0.0 0.0 0.0 0.0 0.0 0.0 0.0 0.0 0.0 0.0 0.0 0.0 0.0 0.0 0.0 0.0 0.0 0.1 0.1 0.2 0.3 0.7 0.8 0.4 nan nan
0.0 0.0 0.0 0.0 0.0 0.0 0.0 0.0 0.0 0.0 0.0 0.0 0.0 0.0 0.0 0.0 0.0 0.0 0.0 0.0 0.0 0.0 0.0 0.0 0.0 0.0 0.0 0.0 0.0 0.0 0.0 0.1 0.1 0.1 0.1 0.1 0.2 0.2 0.3 0.4 0.3 0.3 0.3 0.3
0.0 0.0 0.0 0.0 0.0 0.0 0.0 0.0 0.0 0.0 0.0 0.0 0.0 0.0 0.0 0.0 0.0 0.0 0.0 0.0 0.1 0.2 0.0 0.9 0.4 0.0 0.0 0.0 0.0 0.0 0.1 0.0 0.0 0.1 0.1 0.2 0.2 0.4 0.4 0.3 0.6 0.9 0.5 0.4
0.0 0.0 0.0 0.0 0.0 0.0 0.0 0.0 0.0 0.0 0.0 0.0 0.0 0.0 0.0 0.0 0.0 0.0 0.0 0.0 0.0 0.0 0.0 0.0 0.0 0.0 0.0 0.0 0.0 0.1 0.0 0.1 0.0 0.1 0.1 0.2 0.3 0.4 0.7 0.9 0.6 0.3 0.2 0.3
0.0 0.0 0.0 0.0 0.0 0.0 0.0 0.0 0.0 0.0 0.0 0.0 0.0 0.1 1.1 1.0 0.1 0.2 0.3 0.1 0.4 0.7 0.0 0.0 0.0 0.0 0.0 0.0 0.0 0.1 0.1 0.2 0.1 0.2 0.2 0.6 0.8 0.5 0.3 0.3 0.2 0.2 0.2 0.2
0.0 0.0 0.0 0.0 0.0 0.0 0.0 0.0 0.0 0.0 0.1 0.0 0.2 0.2 0.0 0.9 0.0 0.0 0.0 2.0 2.3 0.1 0.1 0.0 0.0 0.0 0.0 0.0 0.0 0.1 0.2 0.4 0.7 0.9 0.8 0.1 0.2 0.1 0.2 0.3 0.3 0.3 0.3 0.3
0.0 0.0 0.0 0.0 0.0 0.0 0.0 0.0 0.0 0.0 0.0 0.0 1.2 2.7 1.4 3.4 2.4 2.6 0.1 0.2 0.2 0.8 0.0 0.0 0.1 0.0 0.0 0.0 0.1 0.2 0.4 0.6 0.5 0.3 0.3 0.3 0.4 0.5 0.4 0.2 0.3 0.4 0.8 0.9
0.0 0.0 0.0 0.0 0.0 0.0 0.2 0.4 0.0 0.0 0.0 1.5 2.1 3.8 3.9 2.3 3.3 4.5 1.7 1.1 0.2 0.1 0.0 0.0 0.1 0.3 0.1 0.3 0.2 0.3 0.5 0.7 0.7 0.5 0.6 1.0 1.4 0.7 0.8 0.8 0.8 1.2 2.4 1.7
0.0 0.2 2.0 1.2 0.2 0.9 0.5 0.0 0.0 2.5 2.1 4.3 6.7 7.9 6.6 2.0 3.1 2.7 2.9 1.1 0.8 0.0 0.3 0.3 0.4 0.2 0.2 0.5 0.2 0.6 0.5 0.5 0.7 0.8 1.1 1.4 1.3 3.1 3.1 2.4 2.9 3.5 3.4 3.6
0.0 0.0 0.9 4.6 4.1 1.6 2.8 2.8 5.0 3.5 6.7 5.9 6.8 3.2 1.1 0.9 0.8 3.4 5.1 0.2 0.8 1.2 0.7 0.9 1.2 1.1 1.8 1.3 1.0 1.5 2.1 2.2 2.2 1.8 1.6 2.8 2.3 5.7 2.6 2.8 3.1 2.9 5.7 3.7
0.0 0.1 0.5 0.9 2.3 1.5 2.8 0.4 0.4 0.5 5.9 3.1 4.0 6.0 0.8 4.2 3.1 0.6 1.2 2.8 2.9 7.4 4.6 1.9 3.7 3.4 3.5 3.2 3.4 3.8 2.8 3.2 3.1 3.0 1.4 4.3 5.6 4.0 2.9 5.2 3.5 3.1 3.9 3.9
0.2 0.6 0.7 0.6 0.1 0.6 0.1 0.1 0.8 0.7 0.3 0.2 0.4 0.3 0.4 0.8 6.3 3.3 3.2 3.1 4.7 2.6 3.4 3.8 4.2 6.1 5.8 5.6 5.0 5.0 4.8 3.1 3.5 4.6 3.3 6.0 5.5 8.8 6.2 4.4 5.6 6.1 6.1 4.8
0.0 0.4 0.3 0.0 0.2 0.4 0.4 0.4 0.6 0.9 0.8 2.7 1.3 3.3 2.2 2.6 2.3 2.3 2.8 4.4 2.5 4.7 3.4 7.1 8.7 8.3 7.2 5.0 5.2 5.8 3.5 2.4 3.4 3.3 4.4 4.8 4.3 3.5 4.6 3.8 5.8 7.5 9.8 11.2
0.3 0.1 0.5 0.5 0.4 0.3 0.3 0.5 1.2 2.3 1.8 4.2 6.2 3.5 2.6 3.7 4.4 3.7 6.0 6.2 6.1 8.0 8.2 8.3 6.2 6.0 3.8 5.5 5.5 4.9 4.2 3.9 5.6 3.0 5.5 7.5 6.9 9.7 8.8 8.5 10.0 10.9 9.6 8.9
Water_Equivalent
0.03 0.00 0.00 0.00 0.00 0.00 0.19 0.01 0.10 0.00 0.00 0.00 0.00 0.00 0.00 0.00 0.00 0.00 0.00 0.00 0.00 0.00 0.00 0.00 0.00 0.00 0.00 0.00 0.00 0.00 0.00 0.00 0.00 0.00 0.00 0.00 0.00 0.00 0.00 0.00 0.00 0.00 0.00 0.00
0.03 0.00 0.00 0.00 0.00 0.00 0.00 0.00 0.00 0.00 0.00 0.00 0.00 0.00 0.00 0.00 0.00 0.00 0.00 0.00 0.00 0.00 0.00 0.00 0.00 0.00 0.00 0.00 0.00 0.00 0.00 0.00 0.00 0.00 0.00 0.00 0.00 0.00 0.00 0.00 0.00 0.00 0.00 0.00
0.04 0.00 0.00 0.33 0.00 0.00 0.00 0.00 0.00 0.04 0.00 0.00 0.00 0.00 0.00 0.00 0.00 0.00 0.00 0.00 0.00 0.00 0.00 0.00 0.00 0.00 0.00 0.00 0.00 0.00 0.00 0.00 0.00 0.00 0.00 0.00 0.00 0.00 0.00 0.00 0.00 0.00 0.00 0.00
0.47 0.03 1.96 0.01 0.00 0.00 0.00 0.00 0.00 0.00 0.00 0.00 0.00 0.00 0.00 0.00 0.00 0.00 0.00 0.00 0.00 0.00 0.00 0.00 0.00 0.00 0.00 0.00 0.00 0.00 0.00 0.00 0.00 0.00 0.00 0.00 0.00 0.00 0.00 0.00 0.00 0.00 0.00 0.00
1.46 0.14 0.00 0.00 0.00 0.00 0.00 0.00 0.00 0.00 0.00 0.00 0.00 0.00 0.00 0.00 0.00 0.00 0.00 0.00 0.00 0.00 0.00 0.00 0.00 0.00 0.00 0.00 0.00 0.00 0.00 0.00 0.00 0.00 0.00 0.00 0.00 0.00 0.00 0.00 0.00 0.00 0.00 0.00
0.27 0.17 0.52 0.00 0.00 0.00 0.00 0.01 0.00 0.00 0.00 0.00 0.00 0.00 0.00 0.00 0.00 0.00 0.00 0.00 0.00 0.00 0.00 0.00 0.00 0.00 0.00 0.00 0.00 0.00 0.00 0.00 0.00 0.00 0.00 0.00 0.00 0.00 0.00 0.00 0.00 0.00 0.00 0.00
0.36 0.22 0.05 0.00 0.00 0.00 0.06 0.02 0.00 0.00 0.00 0.00 0.01 0.00 0.00 0.00 0.00 0.00 0.00 0.00 0.00 0.00 0.00 0.00 0.00 0.00 0.00 0.00 0.00 0.00 0.00 0.00 0.00 0.00 0.00 0.00 0.00 0.00 0.00 0.00 0.00 0.00 0.00 0.00
0.51 0.99 1.18 0.00 0.00 0.00 0.01 0.00 0.00 0.00 0.00 0.00 0.00 0.00 0.00 0.00 0.00 0.00 0.00 0.00 0.00 0.00 0.00 0.00 0.00 0.00 0.00 0.00 0.00 0.00 0.00 0.00 0.00 0.00 0.00 0.00 0.00 0.00 0.00 0.00 0.00 0.00 0.00 0.00
0.04 0.12 0.00 0.00 0.00 0.00 0.00 0.00 0.00 0.00 0.00 0.00 0.00 0.00 0.00 0.00 0.00 0.00 0.00 0.00 0.00 0.00 0.00 0.00 0.00 0.00 0.00 0.00 0.00 0.00 0.00 0.00 0.00 0.00 0.00 0.00 0.00 0.00 0.00 0.00 0.00 0.00 0.03 0.04
0.01 0.00 0.00 0.00 0.00 0.00 0.00 0.00 0.00 0.00 0.00 0.00 0.00 0.00 0.00 0.00 0.00 0.00 0.00 0.00 0.00 0.00 0.00 0.00 0.00 0.00 0.00 0.00 0.00 0.00 0.00 0.00 0.00 0.00 0.00 0.00 0.00 0.00 0.00 0.02 0.05 0.07 0.09 0.14
0.00 0.00 0.00 0.00 0.00 0.00 0.00 0.00 0.00 0.00 0.00 0.00 0.00 0.00 0.00 0.00 0.00 0.00 0.00 0.00 0.00 0.00 0.00 0.00 0.00 0.00 0.00 0.00 0.00 0.00 0.00 0.00 0.00 0.00 0.00 0.00 0.00 0.00 0.00 0.00 0.05 0.11 0.12 0.20
0.01 0.00 0.00 0.00 0.00 0.00 0.00 0.00 0.00 0.00 0.00 0.00 0.00 0.00 0.00 0.00 0.00 0.00 0.00 0.00 0.00 0.00 0.00 0.00 0.00 0.00 0.00 0.00 0.00 0.00 0.00 0.00 0.00 0.00 0.00 0.00 0.00 0.04 nan nan nan nan nan 0.15
0.00 0.00 0.00 0.00 0.00 0.00 0.00 0.00 0.00 0.00 0.00 0.00 0.00 0.00 0.00 0.00 0.00 nan 0.00 0.00 0.00 0.00 0.00 0.00 0.00 0.00 0.00 0.00 0.00 0.00 0.00 0.00 0.00 0.00 0.00 0.00 0.02 0.06 0.12 0.12 nan nan nan nan
0.00 0.00 0.00 0.00 0.00 0.00 0.00 0.00 0.00 0.00 0.00 0.00 0.00 0.00 0.00 0.00 0.00 0.00 0.00 0.00 0.00 0.00 0.00 0.00 0.00 0.00 0.00 0.00 0.00 0.00 0.00 0.00 0.01 0.01 0.00 0.02 0.02 0.06 0.08 0.16 0.19 0.15 nan nan
0.00 0.00 0.00 0.00 0.00 0.00 0.00 0.00 0.00 0.00 0.00 0.00 0.00 0.00 0.00 0.00 0.00 0.00 0.00 0.00 0.00 0.00 0.00 0.00 0.00 0.00 0.00 0.00 0.00 0.00 0.00 0.03 0.02 0.03 0.03 0.03 0.05 0.07 0.08 0.10 0.09 0.10 0.11 0.08
0.00 0.00 0.00 0.00 0.00 0.00 0.00 0.00 0.00 0.00 0.00 0.00 0.00 0.00 0.00 0.00 0.00 0.00 0.00 0.00 0.03 0.04 0.00 0.37 0.15 0.00 0.00 0.00 0.00 0.00 0.02 0.00 0.01 0.03 0.04 0.05 0.05 0.09 0.09 0.09 0.13 0.20 0.12 0.10
0.00 0.00 0.00 0.00 0.00 0.00 0.00 0.00 0.00 0.00 0.00 0.00 0.00 0.00 0.00 0.00 0.00 0.00 0.00 0.00 0.00 0.00 0.00 0.00 0.01 0.00 0.00 0.00 0.00 0.04 0.02 0.02 0.00 0.03 0.03 0.04 0.07 0.10 0.16 0.25 0.15 0.07 0.08 0.10
0.00 0.00 0.00 0.00 0.00 0.00 0.00 0.00 0.00 0.00 0.00 0.00 0.00 0.02 0.35 0.30 0.01 0.06 0.10 0.03 0.17 0.28 0.00 0.00 0.00 0.00 0.00 0.00 0.00 0.03 0.04 0.05 0.03 0.06 0.05 0.13 0.21 0.13 0.08 0.06 0.06 0.07 0.07 0.07
0.00 0.00 0.00 0.00 0.00 0.00 0.00 0.00 0.00 0.00 0.02 0.01 0.07 0.05 0.02 0.26 0.00 0.00 0.00 0.67 0.73 0.01 0.01 0.00 0.00 0.00 0.00 0.00 0.01 0.05 0.07 0.12 0.16 0.20 0.18 0.02 0.07 0.03 0.06 0.07 0.07 0.09 0.07 0.11
0.00 0.00 0.00 0.00 0.00 0.00 0.00 0.00 0.00 0.00 0.00 0.00 0.40 0.84 0.41 1.06 0.76 0.85 0.04 0.07 0.04 0.17 0.01 0.00 0.01 0.00 0.00 0.00 0.02 0.06 0.10 0.16 0.12 0.10 0.11 0.08 0.11 0.16 0.10 0.06 0.09 0.11 0.27 0.27
0.00 0.00 0.00 0.00 0.00 0.00 0.08 0.13 0.02 0.00 0.01 0.51 0.68 1.12 1.14 0.70 1.03 1.45 0.52 0.31 0.03 0.02 0.00 0.00 0.03 0.08 0.05 0.09 0.06 0.10 0.16 0.26 0.25 0.16 0.17 0.30 0.46 0.21 0.25 0.26 0.23 0.37 0.76 0.51
0.00 0.06 0.65 0.35 0.07 0.24 0.16 0.00 0.00 0.68 0.62 1.28 2.02 2.34 1.82 0.51 0.92 0.82 0.94 0.28 0.22 0.00 0.11 0.10 0.10 0.05 0.07 0.17 0.09 0.22 0.16 0.18 0.22 0.25 0.30 0.43 0.43 1.07 1.08 0.81 0.89 1.12 1.09 1.20
0.00 0.01 0.28 1.24 1.16 0.47 0.83 0.80 1.44 1.05 1.90 1.69 1.90 0.94 0.34 0.26 0.24 0.85 1.12 0.03 0.23 0.39 0.23 0.29 0.38 0.37 0.61 0.53 0.39 0.55 0.78 0.84 0.76 0.53 0.49 0.96 0.76 1.99 0.70 0.78 0.96 0.90 1.92 1.09
0.00 0.02 0.15 0.26 0.64 0.38 0.70 0.12 0.11 0.13 1.65 0.85 1.14 1.80 0.22 1.11 0.99 0.19 0.32 0.91 0.96 2.79 1.72 0.69 1.31 1.14 1.14 1.20 1.28 1.47 1.07 1.17 1.06 1.06 0.40 1.40 2.00 1.27 0.84 1.72 0.92 0.97 1.21 1.13
0.06 0.17 0.21 0.16 0.04 0.19 0.02 0.02 0.22 0.20 0.09 0.07 0.10 0.08 0.10 0.25 1.39 0.84 0.88 0.87 1.53 0.82 1.07 1.27 1.38 2.01 2.18 2.13 1.88 1.86 1.71 1.06 1.21 1.54 0.94 1.87 1.60 2.85 1.99 1.26 1.68 1.85 1.87 1.45
0.00 0.13 0.10 0.01 0.07 0.12 0.14 0.14 0.19 0.25 0.23 0.73 0.37 1.11 0.72 0.66 0.61 0.61 0.79 1.35 0.67 1.53 0.95 2.31 3.01 2.95 2.55 1.70 1.87 1.99 1.17 0.74 0.97 0.92 1.25 1.29 1.15 0.87 1.20 1.01 1.70 2.39 3.16 3.66
0.10 0.04 0.16 0.15 0.13 0.09 0.09 0.15 0.35 0.58 0.55 1.22 1.45 0.97 0.71 1.00 1.28 1.07 1.91 1.81 1.79 2.25 2.34 2.67 2.01 1.97 1.12 1.77 1.55 1.37 1.21 1.12 1.80 0.77 1.56 2.06 1.92 2.89 2.48 2.45 3.03 3.46 2.89 2.46
SL_Ratio
3.4 nan nan nan 3.3 nan 4.6 3.8 4.1 nan nan nan nan nan nan nan nan nan nan nan nan nan nan nan nan nan nan nan nan nan nan nan nan nan nan nan nan nan nan nan nan nan nan nan
3.5 nan nan nan nan nan nan nan nan nan nan nan nan nan nan nan nan nan nan nan nan nan nan nan nan nan nan nan nan nan nan nan nan nan nan nan nan nan nan nan nan nan nan nan
3.7 nan nan 4.4 nan nan nan nan nan 3.7 nan nan nan nan nan nan nan nan nan nan nan nan nan nan nan nan nan nan nan nan nan nan nan nan nan nan nan nan nan nan nan nan nan nan
3.7 3.1 5.2 3.6 nan nan nan nan nan nan nan nan nan nan nan nan nan nan nan nan nan nan nan nan nan nan nan nan nan nan nan nan nan nan nan nan nan nan nan nan nan nan nan nan
4.3 3.4 nan nan nan nan nan nan nan nan nan nan nan nan nan nan nan nan nan nan nan nan nan nan nan nan nan nan nan nan nan nan nan nan nan nan nan nan nan nan nan nan nan nan
3.3 4.1 4.4 nan nan nan nan 3.8 nan nan nan nan nan nan nan nan nan nan nan nan nan nan nan nan nan nan nan nan nan nan nan nan nan nan nan nan nan nan nan nan nan nan nan nan
3.3 3.8 3.2 nan nan nan 4.1 4.3 nan nan nan nan 2.9 nan nan nan nan nan nan nan nan nan nan nan nan nan nan nan nan nan nan nan nan nan nan nan nan nan nan nan nan nan nan nan
3.8 4.1 5.1 nan nan nan 3.1 nan nan nan nan nan nan nan nan nan nan nan nan nan nan nan nan nan nan nan nan nan nan nan nan nan nan nan nan nan nan nan nan nan nan nan nan nan
3.6 3.2 nan nan nan nan nan nan nan nan nan nan nan nan nan nan nan nan nan nan nan nan nan nan nan nan nan nan nan nan nan nan nan nan nan nan nan nan nan nan 2.9 1.7 2.7 2.7
3.4 nan nan nan nan nan nan nan nan nan nan nan nan nan nan nan nan nan nan nan nan nan nan nan nan nan nan nan nan nan nan nan nan nan nan nan nan nan 0.0 2.7 3.0 3.1 3.6 3.7
nan nan nan nan nan nan nan nan nan nan nan nan nan nan nan nan nan nan nan nan nan nan nan nan nan nan nan nan nan nan nan nan nan nan nan nan nan nan nan 2.7 3.3 3.8 3.7 4.9
2.6 nan nan nan nan nan nan nan nan nan nan nan nan nan nan nan nan nan nan nan nan nan nan nan nan nan nan nan nan nan nan nan nan nan nan nan 2.5 2.5 nan nan nan nan nan 3.8
nan nan nan nan nan nan nan nan nan nan nan nan nan nan nan nan nan nan nan nan nan nan nan nan nan nan nan nan nan nan nan nan nan nan nan 2.3 2.5 2.9 3.3 2.5 nan nan nan nan
nan nan nan nan nan nan nan nan nan nan nan nan nan nan nan nan nan nan nan nan nan nan nan nan nan nan nan nan nan nan nan nan 3.4 2.6 2.7 2.6 2.9 3.1 3.8 4.2 4.0 2.7 nan nan
nan nan nan nan nan nan nan nan nan nan nan nan nan nan nan nan nan nan nan nan nan 2.3 2.9 nan nan nan nan nan nan nan nan 2.7 2.5 2.5 2.6 2.8 3.2 3.6 3.8 4.0 3.4 3.0 3.1 3.9
nan nan nan nan nan nan nan nan nan nan nan nan nan nan nan nan nan nan nan nan 3.9 3.8 nan 2.5 2.5 5.0 7.5 nan nan nan 2.5 nan 2.4 2.9 3.2 3.1 3.3 4.3 4.2 3.9 4.5 4.5 4.0 3.6
nan nan nan nan nan nan nan nan nan nan nan nan nan nan nan nan nan nan nan nan nan 3.3 nan nan 5.2 nan 7.5 nan nan 2.8 2.7 2.6 5.0 3.3 3.4 4.1 4.7 4.6 4.2 3.5 4.2 3.8 3.1 2.9
nan nan nan nan nan nan nan nan nan nan nan nan nan 2.5 3.0 3.5 3.7 3.1 2.9 2.8 2.5 2.6 nan nan 8.2 nan 7.5 nan nan 2.6 2.8 3.0 3.2 3.6 4.0 4.3 3.9 4.0 4.4 4.1 3.8 3.5 3.2 3.0
nan nan nan nan nan nan nan nan nan nan 2.8 2.8 3.0 3.1 2.9 3.2 nan nan 2.9 3.0 3.1 5.4 5.8 10.0 nan 7.5 5.0 7.5 3.2 2.7 3.1 3.7 4.4 4.6 4.5 3.4 3.2 3.3 3.9 3.8 3.6 3.4 3.5 3.3
nan nan nan nan nan nan nan nan nan nan nan nan 3.0 3.2 3.4 3.2 3.1 3.1 2.9 3.2 5.4 4.4 4.8 nan 8.3 9.2 7.5 nan 3.3 3.4 3.5 3.8 4.2 3.3 3.2 3.4 3.4 3.3 3.7 3.2 3.7 3.5 3.0 3.2
nan nan nan nan nan nan 2.6 2.8 3.1 3.3 3.0 3.0 3.1 3.3 3.4 3.3 3.2 3.1 3.3 3.5 8.3 4.9 5.8 5.0 3.7 4.0 3.0 3.6 2.9 3.1 3.2 2.9 2.8 3.3 3.5 3.3 3.1 3.2 3.1 3.1 3.5 3.3 3.1 3.4
nan 3.0 3.1 3.4 3.5 3.6 3.3 3.1 2.5 3.6 3.5 3.3 3.3 3.4 3.6 4.0 3.3 3.2 3.1 4.0 3.7 0.0 2.7 2.7 3.7 3.7 3.3 3.0 2.7 2.7 3.0 3.0 2.9 3.3 3.6 3.3 3.0 2.9 2.8 3.0 3.2 3.1 3.1 3.0
0.0 2.9 3.3 3.7 3.5 3.5 3.4 3.5 3.5 3.4 3.5 3.5 3.6 3.4 3.4 3.3 3.3 4.1 4.6 5.1 3.5 3.1 3.1 3.0 3.0 3.0 3.0 2.5 2.6 2.7 2.6 2.6 2.9 3.3 3.3 2.9 3.1 2.9 3.8 3.6 3.3 3.3 3.0 3.4
3.1 3.3 3.3 3.4 3.6 3.9 4.0 3.5 3.5 3.5 3.6 3.6 3.5 3.3 3.4 3.8 3.1 3.2 3.9 3.0 3.0 2.6 2.7 2.8 2.8 3.0 3.0 2.6 2.7 2.6 2.7 2.8 2.9 2.9 3.4 3.0 2.8 3.2 3.5 3.0 3.8 3.2 3.2 3.4
3.5 3.5 3.5 3.7 3.6 3.3 3.5 3.4 3.7 3.7 3.6 3.4 3.6 3.4 3.8 3.3 4.6 3.9 3.7 3.5 3.1 3.1 3.2 3.0 3.0 3.0 2.7 2.6 2.7 2.7 2.8 2.9 2.9 3.0 3.5 3.2 3.4 3.1 3.1 3.5 3.3 3.3 3.3 3.3
nan 3.0 3.0 3.2 3.2 3.1 3.2 3.2 3.5 3.4 3.4 3.7 3.6 3.0 3.1 3.9 3.8 3.8 3.6 3.3 3.7 3.1 3.5 3.1 2.9 2.8 2.8 3.0 2.8 2.9 3.0 3.3 3.5 3.6 3.5 3.7 3.8 4.0 3.8 3.8 3.4 3.1 3.1 3.1
3.0 3.1 3.2 3.2 3.1 2.9 2.9 3.2 3.6 3.9 3.3 3.5 4.3 3.6 3.7 3.7 3.4 3.4 3.2 3.4 3.4 3.5 3.5 3.1 3.1 3.0 3.4 3.1 3.5 3.6 3.5 3.5 3.1 3.9 3.5 3.7 3.6 3.4 3.6 3.4 3.3 3.1 3.3 3.6